Location: Sevilla
(37.3933°N, 5.9839°W)
Time: 06:00:24
(UTC+02:00)

Vanguard 3 - Pass Details

Date: 02 July 2024
Orbit: 508 x 3231 km, 33.4° (Epoch: 15 July)

Event Time Altitude Azimuth Distance (km) Brightness Sun altitude
Rises 11:40:57 0° 273° (W) 6,378 11.3 51.5°
Reaches altitude 10° 11:45:50 10° 271° (W) 4,972 10.9 52.4°
Maximum altitude 11:58:34 64° 195° (SSW) 1,647 9.6 54.9°
Drops below altitude 10° 12:05:35 10° 115° (ESE) 2,846 10.7 56.3°
Sets 12:07:40 0° 112° (ESE) 3,553 11.0 56.7°
